Back to Previous

Regional Weather Roundup

583 
ASUS44 KLZK 030905
RWRLZK

WEATHER ROUNDUP FOR ARKANSAS
NATIONAL WEATHER SERVICE LITTLE ROCK AR
400 AM CDT FRI JUL 03 2015

NOTE: "FAIR" INDICATES FEW OR NO CLOUDS BELOW 12,000 FEET WITH NO
SIGNIFICANT WEATHER AND/OR OBSTRUCTIONS TO VISIBILITY.

ARZ001-003-010-029-031000-
NORTHWEST ARKANSAS
  
CITY           SKY/WX    TMP DP  RH WIND       PRES   REMARKS
FAYETTEVILLE   CLOUDY    69  68  96 S5        29.94R                  
FORT SMITH     CLOUDY    75  72  90 NW5       29.90S                  
HARRISON       PTCLDY    67  66  97 W3        29.92S                  
BENTONVILLE    PTCLDY   N/A N/A N/A W5        29.92F                  
ROGERS         PTCLDY    69  66  90 W6        29.93F                  
SILOAM SPGS    PTCLDY    66  63  88 CALM        N/A                   
HIGHFILL       PTCLDY    69  67  93 W5        29.92F                  
$$

ARZ004-005-016-031000-
NORTH CENTRAL ARKANSAS
  
CITY           SKY/WX    TMP DP  RH WIND       PRES   REMARKS
BATESVILLE     CLOUDY    72  70  94 NE3       29.89R                  
FLIPPIN        PTCLDY    72  66  83 S3        29.88R                  
MTN HOME       PTCLDY    70  68  93 CALM      29.90R                  
$$

ARZ040-041-031000-
WEST CENTRAL ARKANSAS
  
CITY           SKY/WX    TMP DP  RH WIND       PRES   REMARKS
MENA           CLOUDY    77  73  88 CALM      29.95S                  
MOUNT IDA      LGT RAIN  76  72  87 VRB5      29.91S                  
$$

ARZ009-017-025-026-028-031000-
NORTHEAST ARKANSAS
  
CITY           SKY/WX    TMP DP  RH WIND       PRES   REMARKS
JONESBORO      CLOUDY    71  70  96 W6        29.87R                  
NEWPORT        CLOUDY    73  72  97 SW5       29.90R                  
WALNUT RIDGE   MOCLDY    70  66  88 SW5       29.87R                  
BLYTHEVILLE    MOCLDY    71  71 100 CALM      29.87R                  
$$

ARZ022-023-033-042-044-031000-
CENTRAL ARKANSAS
  
CITY           SKY/WX    TMP DP  RH WIND       PRES   REMARKS
LITTLE ROCK    CLOUDY    77  72  84 SW7       29.89S                  
N LITTLE ROCK    N/A     75  74  95 SW6       29.89S                  
JACKSONVILLE   CLOUDY    75  74  97 W3        29.88S                  
SEARCY         CLOUDY    75  70  84 SW3       29.89S                  
HOT SPRINGS    LGT RAIN  76  73  91 SW9       29.92S                  
RUSSELLVILLE   MOCLDY    73  72  96 CALM      29.88F                  
$$

ARZ036-031000-
EAST ARKANSAS
  
CITY           SKY/WX    TMP DP  RH WIND       PRES   REMARKS
WEST MEMPHIS   CLOUDY    71  71 100 CALM      29.86R                  
$$

ARZ050-053-066-070-073-031000-
SOUTHWEST ARKANSAS
  
CITY           SKY/WX    TMP DP  RH WIND       PRES   REMARKS
ARKADELPHIA    FAIR      79  75  87 SW8       29.92S                  
CAMDEN         CLOUDY    79  68  69 MISG      29.92S                  
TEXARKANA      CLOUDY    78  74  87 S13       29.93F                  
EL DORADO      MOCLDY    77  72  84 SW10      29.95F                  
DE QUEEN       CLOUDY    76  74  93 CALM      29.90S                  
$$

ARZ056-057-069-031000-
SOUTHEAST ARKANSAS
  
CITY           SKY/WX    TMP DP  RH WIND       PRES   REMARKS
PINE BLUFF     LGT RAIN  78  73  84 W5        29.92R                  
STUTTGART      CLOUDY    75  72  88 SW10      29.88R                  
MONTICELLO     CLOUDY    79  74  84 SW10      29.92S                  

$$




USA.gov is the U.S. government's official web portal to all federal, state and local government web resources and services.